Flag for Germany Weather past 2 weeks in Verden (Aller), Lower Saxony, Germany

Now
45 °F

Partly cloudy.


Feels Like: 36 °F
Forecast: 36 / 46 °F
Wind: 23 mph from West

Location: Bremen Airport

Current Time: Dec 20, 2014 at 8:20:08 AM

Latest Report: Dec 20, 2014 at 7:50 AM


Visibility: N/A

Pressure: 29.86 "Hg

Humidity: 76%

Dew point: 37 °F

Location of Verden (Aller)Location

Historic Weather in Verden (Aller) — Graph

°F

Verden (Aller) temperature yesterday

Maximum temperature yesterday: 54 °F (at 12:20 AM)
Minimum temperature yesterday: 41 °F (at 9:20 PM)
Average temperature yesterday: 48 °F

Past Weeks' High & Low Weather Summary

 TemperatureHumidityPressure
High54 °F (Dec 18, 3:50 PM)100% (Dec 5, 7:20 AM)30.33 "Hg (Dec 5, 7:20 AM)
Low32 °F (Dec 13, 8:50 PM)70% (Dec 10, 4:20 AM)29.24 "Hg (Dec 12, 11:50 AM)
Average41 °F90%29.84 "Hg
* Reported Dec 5 7:20 AM — Dec 20 7:20 AM, Verden (Aller), Weather by CustomWeather, © 2014

Note: Actual official high and low records may vary slightly from our data, if they occured in-between our weather recording intervals... More about our weather records

Advertising

Verden (Aller) weather history for previous 24 hours

 ConditionsComfort  
Time TempWeatherWind HumidityBarometerVisibility
7:20 AM
Dec 20
45 °FPassing clouds.25 mph76%29.86 "HgN/A
6:50 AM45 °FSprinkles. Passing clouds.23 mph76%29.89 "HgN/A
6:20 AM45 °FPassing clouds.26 mph76%29.89 "HgN/A
5:50 AM45 °FPassing clouds.24 mph76%29.89 "HgN/A
5:20 AM45 °FPassing clouds.23 mph76%29.89 "HgN/A
4:50 AM45 °FPassing clouds.24 mph76%29.89 "HgN/A
4:20 AM45 °FPassing clouds.23 mph76%29.89 "HgN/A
3:50 AM45 °FPassing clouds.23 mph76%29.89 "HgN/A
3:20 AM43 °FQuite cool.22 mph81%29.89 "HgN/A
2:50 AM43 °FPassing clouds.22 mph81%29.92 "HgN/A
2:20 AM43 °FPassing clouds.21 mph81%29.89 "HgN/A
1:50 AM43 °FPassing clouds.20 mph76%29.89 "HgN/A
1:20 AM43 °FClear.22 mph81%29.89 "Hg10 mi
12:50 AM43 °FPassing clouds.22 mph81%29.89 "HgN/A
12:20 AM43 °FPassing clouds.20 mph81%29.89 "HgN/A
11:50 PM
Dec 19
43 °FPassing clouds.20 mph81%29.89 "HgN/A
11:20 PM43 °FSprinkles. Passing clouds.18 mph81%29.89 "HgN/A
10:50 PM43 °FSprinkles. Passing clouds.16 mph87%29.89 "HgN/A
10:20 PM43 °FSprinkles. Passing clouds.17 mph81%29.89 "HgN/A
9:50 PM43 °FClear.17 mph81%29.86 "Hg10 mi
9:20 PM41 °FClear.18 mph87%29.86 "Hg10 mi
8:50 PM43 °FClear.18 mph81%29.86 "Hg10 mi
8:20 PM43 °FPassing clouds.18 mph81%29.86 "HgN/A
7:50 PM45 °FPassing clouds.22 mph76%29.83 "HgN/A
7:20 PM43 °FPassing clouds.22 mph81%29.83 "HgN/A
6:50 PM43 °FPassing clouds.18 mph81%29.80 "HgN/A
6:20 PM43 °FPassing clouds.17 mph81%29.80 "HgN/A
5:50 PM43 °FPassing clouds.17 mph81%29.80 "HgN/A
5:20 PM45 °FPassing clouds.16 mph76%29.77 "HgN/A
4:50 PM45 °FPassing clouds.17 mph76%29.77 "HgN/A
4:20 PM45 °FPassing clouds.16 mph76%29.77 "HgN/A
3:50 PM46 °FPartly sunny.17 mph76%29.74 "HgN/A
3:20 PM46 °FPartly sunny.20 mph82%29.74 "HgN/A
2:50 PM48 °FBroken clouds.16 mph82%29.71 "HgN/A
2:20 PM48 °FBroken clouds.14 mph82%29.71 "HgN/A
1:50 PM48 °FPartly sunny.16 mph82%29.71 "HgN/A
1:20 PM48 °FBroken clouds.17 mph87%29.71 "HgN/A
12:50 PM48 °FBroken clouds.18 mph87%29.68 "HgN/A
12:20 PM48 °FPartly sunny.17 mph87%29.68 "HgN/A
11:50 AM50 °FLight rain. Broken clouds.15 mph88%29.68 "HgN/A
11:20 AM50 °FLight rain. Partly sunny.15 mph88%29.65 "HgN/A
10:50 AM50 °FLight rain. Partly sunny.17 mph88%29.65 "HgN/A
10:20 AM50 °FLight rain. Partly sunny.16 mph94%29.65 "HgN/A
9:50 AM54 °FRain. Partly sunny.18 mph88%29.62 "Hg4 mi
9:20 AM54 °FLight rain. Partly sunny.20 mph88%29.62 "Hg5 mi
8:50 AM54 °FLight rain. Partly sunny.18 mph88%29.62 "HgN/A
8:20 AM54 °FLight rain. Passing clouds.17 mph88%29.62 "HgN/A
Weather by CustomWeather, © 2014

See weather overviewHow to use our weather pages